Vorticity
8 7 7 6 8 10 11 10 7 6 8 8 5 4 5 6 7 7 6 4 5 6 6 6 6 6 6 7 8 10 12 15 18 20 23 25 27 26 25 22 15 21 26 20 17 12 3 5 10 6 4 6
8 8 7 8 10 11 10 8 8 8 9 7 5 5 6 6 7 7 5 3 4 6 6 6 5 6 5 6 7 8 10 13 16 19 22 22 25 26 27 28 19 15 21 24 22 16 9 5 9 12 7 5
9 8 8 8 9 9 8 8 8 9 8 6 5 6 7 7 8 7 5 3 4 5 5 5 5 5 5 5 6 8 8 11 14 17 21 21 21 25 25 28 25 13 11 21 26 21 13 7 6 10 14 10
9 8 8 8 8 6 6 6 7 7 6 5 5 6 7 8 8 7 6 4 4 5 5 5 4 4 4 5 5 6 8 9 12 15 20 22 20 23 24 29 28 9 5 14 20 25 16 5 -1 -3 8 16
9 8 8 8 7 5 4 4 5 5 4 4 5 6 7 7 7 7 6 5 4 5 5 5 4 4 4 5 5 5 7 8 11 12 17 23 22 24 23 32 39 12 -2 4 4 18 24 15 3 -14 -7 10
8 8 7 7 6 4 3 3 3 3 2 3 4 5 6 6 6 6 6 6 5 5 6 6 5 4 4 4 5 6 7 8 10 11 13 21 22 25 24 29 48 30 0 2 -1 2 19 30 23 -5 -17 -1
7 6 6 5 5 4 4 2 2 1 1 2 3 5 5 5 5 6 6 7 6 6 6 6 6 5 5 4 6 7 8 8 9 11 10 17 22 23 28 25 45 53 22 17 21 4 2 19 36 23 -12 -12
6 5 4 4 4 4 4 3 2 2 1 1 3 4 4 4 4 5 6 7 6 6 6 5 6 6 6 5 6 7 8 10 9 12 9 12 21 21 28 28 37 60 36 16 29 19 0 -2 20 41 12 -17
5 4 3 3 2 2 3 4 3 2 1 2 4 4 4 4 4 5 5 6 6 6 5 4 5 6 7 7 7 7 8 12 10 11 10 8 18 20 25 30 35 55 45 15 20 28 20 8 -0 25 35 -1
4 3 2 2 1 1 4 5 3 2 2 3 5 5 5 4 4 5 4 6 6 5 4 4 6 6 8 9 8 9 8 12 12 10 11 7 13 20 21 28 36 51 58 30 12 25 32 28 8 0 28 25
3 3 3 3 2 3 4 5 3 2 3 4 6 6 5 5 4 5 5 5 5 4 4 4 7 7 9 11 9 11 9 10 13 11 10 8 10 19 19 23 36 47 63 45 5 11 27 30 32 4 3 29
4 4 4 4 4 3 4 4 3 2 4 6 6 6 5 6 5 5 5 6 5 3 4 5 7 9 10 12 11 11 12 11 13 13 10 8 8 17 19 17 31 48 62 60 15 -6 9 18 37 29 1 17
5 5 5 6 4 3 4 4 3 3 6 7 6 7 7 7 5 6 6 5 4 3 4 6 8 11 13 13 13 12 12 12 13 14 10 7 9 13 20 14 22 49 61 66 38 -14 -16 4 24 38 18 13
5 6 5 5 3 3 5 4 4 5 7 7 7 8 7 6 6 6 6 3 3 4 5 7 10 13 15 15 14 14 12 12 12 14 11 5 10 12 18 16 13 45 64 64 55 -1 -30 -5 11 30 29 14
5 6 5 4 4 5 5 4 5 6 6 7 8 8 6 6 6 5 4 3 2 4 6 8 13 15 17 17 14 14 12 12 12 14 13 4 9 14 13 17 10 35 66 62 62 25 -24 -13 3 19 32 16
6 7 6 5 5 6 6 6 6 6 6 8 8 7 6 5 5 4 2 3 3 5 8 10 15 17 18 17 13 14 12 11 14 14 14 5 6 15 11 14 12 28 61 61 64 45 -7 -15 1 13 30 25
8 7 6 6 7 7 6 6 5 6 7 8 8 6 5 6 4 3 2 3 4 5 9 12 16 19 18 17 12 13 14 10 14 15 12 6 6 13 12 10 13 27 53 57 61 58 16 -13 -14 -3 17 29
7 6 6 7 7 6 5 5 6 6 8 7 7 6 5 5 2 2 3 3 6 7 11 14 17 20 17 15 13 12 15 12 13 17 12 6 7 11 11 8 11 29 48 49 55 63 41 3 -29 -38 -14 11
6 7 7 7 6 5 5 5 6 6 8 7 5 6 5 4 2 2 4 4 6 8 12 15 17 20 18 14 12 12 15 14 13 17 12 6 8 9 10 8 8 30 49 41 45 60 53 32 -7 -47 -38 -9
7 7 6 6 4 5 5 5 7 7 7 6 5 6 5 3 2 2 4 5 7 10 12 16 18 19 18 13 11 14 15 15 15 16 13 6 8 8 8 9 7 29 52 39 36 52 54 48 27 -13 -26 -11
6 6 5 5 5 4 5 6 8 8 7 6 5 6 5 2 3 3 4 5 7 11 14 16 19 18 16 13 10 15 16 15 15 15 12 7 8 8 6 8 7 26 49 43 36 42 51 52 41 23 -1 -8
5 5 5 5 5 4 6 7 7 8 6 5 6 5 5 3 3 4 4 6 7 12 16 15 19 18 15 12 10 15 17 15 16 14 11 7 8 8 6 7 6 23 42 42 45 41 42 52 44 39 8 -22
5 5 6 5 6 6 6 8 7 8 6 5 6 5 4 4 3 5 4 6 8 12 16 16 19 19 14 11 10 15 17 15 16 13 10 7 9 8 6 7 4 21 37 33 51 51 37 45 40 47 30 -26
6 5 7 7 7 7 7 8 8 7 7 6 6 5 4 5 3 5 5 6 9 13 16 17 19 18 13 12 11 14 17 16 16 13 9 7 9 10 5 8 5 16 34 26 45 61 42 41 35 44 58 5
7 6 7 8 7 8 7 8 8 6 7 6 6 6 5 5 4 5 6 6 10 15 16 16 18 17 13 13 11 14 16 16 16 12 9 7 8 11 5 6 7 12 30 23 33 62 51 41 36 36 65 36
7 7 8 8 7 7 7 8 8 7 7 6 5 7 5 5 5 5 6 7 11 15 17 16 17 17 14 13 11 14 16 15 15 11 8 8 7 11 7 5 8 10 26 24 22 51 56 46 37 32 58 53
7 8 8 8 8 7 7 7 8 7 7 7 7 7 6 5 5 5 6 8 12 16 17 16 16 16 14 13 12 14 17 14 14 12 7 8 7 10 9 5 8 9 20 25 18 34 50 50 42 34 48 57
8 9 8 8 7 7 8 7 8 7 6 7 7 8 7 6 5 5 7 9 13 16 17 16 15 17 15 13 12 14 16 14 13 11 8 7 6 9 10 6 8 9 16 23 18 24 39 45 43 42 43 47
9 9 8 8 7 7 8 7 8 7 8 8 7 8 7 7 6 5 7 9 13 17 18 16 14 16 16 12 12 15 15 14 13 10 8 8 6 8 9 7 8 9 14 22 19 18 29 38 38 41 47 44
8 8 8 8 8 8 8 7 7 7 8 9 8 8 7 6 6 5 7 10 13 17 19 17 13 15 17 13 11 15 15 13 13 10 8 8 7 8 9 7 8 9 12 19 21 16 19 32 35 33 44 49
8 8 8 8 8 8 9 8 9 9 9 9 8 8 8 6 6 6 8 11 13 17 19 17 13 15 17 13 11 15 16 13 12 9 8 9 7 7 10 8 8 9 10 15 20 18 15 23 32 29 35 47
Height
5761 5760 5758 5757 5755 5754 5752 5750 5749 5747 5745 5743 5742 5740 5738 5735 5733 5731 5729 5727 5724 5722 5720 5717 5715 5712 5709 5706 5704 5702 5698 5694 5691 5688 5684 5683 5682 5681 5680 5681 5686 5690 5692 5695 5699 5707 5715 5719 5721 5723 5727 5731
5756 5755 5753 5752 5750 5748 5747 5745 5743 5741 5740 5738 5736 5734 5732 5730 5727 5725 5723 5721 5718 5716 5713 5711 5708 5705 5702 5699 5696 5695 5693 5688 5684 5681 5679 5676 5674 5672 5672 5672 5673 5676 5681 5685 5688 5694 5704 5710 5713 5714 5717 5722
5751 5750 5748 5747 5745 5743 5742 5740 5738 5736 5734 5733 5731 5729 5726 5724 5722 5720 5717 5714 5712 5709 5707 5704 5701 5698 5695 5692 5689 5687 5686 5682 5678 5675 5672 5670 5668 5666 5664 5664 5664 5665 5668 5674 5678 5682 5691 5700 5704 5705 5708 5712
5746 5745 5743 5742 5740 5738 5737 5735 5733 5731 5729 5727 5725 5723 5721 5719 5716 5714 5711 5708 5706 5703 5700 5697 5693 5690 5687 5684 5681 5678 5677 5674 5671 5668 5665 5662 5660 5660 5658 5656 5657 5657 5657 5661 5668 5672 5679 5687 5693 5695 5697 5702
5741 5740 5738 5736 5735 5733 5731 5729 5728 5726 5724 5722 5720 5718 5715 5713 5710 5708 5705 5702 5699 5697 5693 5690 5686 5682 5679 5676 5673 5670 5668 5666 5663 5661 5658 5654 5652 5651 5651 5649 5650 5651 5651 5651 5655 5660 5667 5675 5681 5684 5686 5691
5736 5735 5733 5731 5729 5727 5726 5724 5722 5720 5718 5716 5714 5712 5709 5707 5704 5701 5699 5696 5693 5690 5687 5683 5679 5675 5671 5668 5664 5661 5658 5657 5654 5652 5650 5647 5644 5642 5642 5642 5642 5644 5644 5643 5644 5647 5654 5663 5671 5674 5676 5680
5731 5729 5727 5725 5724 5722 5720 5718 5716 5714 5712 5710 5707 5705 5703 5700 5697 5694 5692 5689 5686 5683 5680 5677 5673 5668 5664 5660 5656 5652 5649 5647 5645 5642 5640 5638 5636 5633 5632 5632 5633 5634 5635 5635 5635 5636 5640 5649 5659 5663 5666 5670
5726 5724 5722 5720 5718 5716 5714 5712 5710 5708 5705 5703 5701 5699 5696 5693 5690 5687 5684 5682 5679 5676 5673 5670 5666 5661 5657 5653 5648 5644 5640 5637 5635 5633 5630 5628 5626 5624 5622 5622 5622 5623 5625 5626 5626 5627 5628 5634 5645 5652 5656 5660
5720 5718 5716 5714 5712 5710 5708 5706 5704 5702 5699 5697 5694 5692 5689 5686 5682 5679 5676 5674 5671 5668 5665 5662 5658 5654 5649 5645 5640 5636 5632 5628 5625 5623 5620 5618 5616 5614 5611 5610 5610 5611 5613 5616 5617 5617 5619 5622 5630 5640 5645 5650
5715 5713 5711 5709 5707 5705 5702 5700 5698 5695 5693 5691 5688 5685 5682 5678 5675 5672 5669 5666 5663 5660 5657 5654 5650 5645 5641 5637 5632 5627 5623 5619 5615 5613 5611 5608 5605 5603 5601 5599 5598 5599 5600 5604 5607 5607 5609 5611 5617 5626 5633 5639
5709 5707 5705 5703 5701 5699 5697 5694 5692 5689 5687 5684 5681 5678 5674 5671 5668 5664 5661 5658 5655 5652 5649 5645 5641 5637 5633 5628 5623 5619 5614 5611 5607 5603 5601 5598 5595 5592 5590 5588 5586 5587 5588 5591 5596 5598 5599 5602 5606 5613 5621 5627
5704 5702 5700 5698 5695 5693 5691 5689 5686 5683 5681 5677 5674 5671 5667 5664 5661 5657 5654 5650 5647 5644 5640 5636 5632 5628 5624 5619 5615 5610 5605 5601 5598 5594 5591 5589 5585 5582 5579 5577 5575 5574 5575 5578 5584 5587 5589 5592 5596 5602 5608 5614
5698 5696 5694 5692 5690 5688 5685 5683 5680 5677 5674 5671 5668 5664 5660 5657 5653 5650 5646 5643 5639 5635 5631 5627 5623 5619 5615 5610 5606 5601 5597 5592 5588 5584 5582 5579 5576 5572 5569 5566 5563 5562 5562 5564 5571 5576 5579 5583 5587 5592 5598 5603
5693 5691 5689 5687 5684 5682 5679 5676 5674 5671 5668 5664 5661 5657 5653 5650 5646 5642 5638 5635 5631 5627 5622 5618 5614 5610 5605 5601 5597 5592 5588 5584 5579 5575 5572 5570 5567 5563 5560 5556 5553 5551 5550 5551 5558 5564 5568 5573 5577 5581 5587 5592
5688 5685 5683 5681 5679 5676 5673 5670 5667 5664 5661 5657 5654 5650 5646 5642 5639 5635 5631 5627 5622 5618 5614 5609 5604 5600 5596 5592 5588 5583 5579 5575 5570 5566 5563 5560 5558 5554 5550 5547 5543 5540 5539 5539 5544 5552 5557 5562 5567 5571 5575 5581
5683 5680 5678 5675 5672 5669 5666 5664 5660 5657 5654 5650 5647 5643 5639 5635 5631 5627 5623 5619 5614 5610 5605 5600 5595 5591 5586 5582 5578 5574 5570 5566 5562 5558 5554 5551 5548 5545 5541 5537 5534 5530 5529 5528 5530 5538 5545 5552 5557 5560 5564 5569
5677 5675 5672 5669 5666 5663 5660 5657 5654 5650 5647 5643 5640 5636 5632 5628 5624 5620 5615 5610 5605 5601 5596 5591 5586 5581 5577 5572 5568 5565 5562 5557 5553 5549 5545 5542 5540 5536 5532 5528 5524 5521 5520 5519 5519 5524 5532 5540 5547 5550 5554 5559
5672 5669 5666 5663 5660 5657 5654 5651 5647 5643 5640 5636 5632 5628 5624 5620 5616 5611 5607 5602 5597 5591 5586 5582 5577 5572 5568 5563 5559 5556 5553 5549 5545 5541 5537 5534 5531 5528 5523 5519 5515 5511 5510 5510 5509 5512 5518 5527 5534 5538 5544 5550
5666 5663 5660 5657 5654 5651 5647 5644 5640 5637 5633 5629 5625 5621 5617 5612 5608 5603 5598 5593 5588 5582 5577 5572 5567 5563 5559 5555 5551 5547 5544 5540 5537 5533 5528 5525 5522 5519 5515 5510 5506 5502 5500 5501 5501 5501 5505 5513 5519 5524 5534 5541
5661 5658 5654 5651 5648 5644 5641 5637 5633 5629 5626 5622 5617 5613 5609 5604 5600 5595 5590 5585 5579 5574 5569 5563 5558 5554 5550 5546 5542 5539 5535 5532 5529 5525 5520 5516 5513 5511 5507 5502 5498 5493 5491 5491 5492 5492 5493 5499 5504 5511 5522 5530
5655 5652 5648 5645 5641 5637 5634 5630 5626 5622 5618 5614 5610 5606 5601 5596 5591 5587 5582 5576 5571 5566 5560 5555 5550 5545 5542 5538 5534 5530 5527 5524 5520 5517 5513 5508 5504 5502 5499 5495 5490 5485 5482 5482 5482 5483 5484 5487 5491 5498 5510 5518
5649 5646 5642 5638 5634 5630 5627 5623 5618 5615 5611 5607 5603 5598 5594 5589 5584 5579 5574 5569 5563 5558 5552 5547 5542 5537 5533 5529 5525 5522 5518 5515 5512 5509 5505 5500 5496 5493 5491 5487 5483 5477 5474 5472 5472 5474 5475 5477 5481 5487 5498 5508
5643 5639 5635 5631 5627 5623 5619 5615 5611 5607 5603 5599 5595 5591 5586 5581 5576 5571 5566 5561 5555 5549 5544 5539 5534 5529 5525 5521 5517 5514 5510 5507 5504 5501 5497 5493 5489 5485 5483 5480 5476 5470 5466 5463 5463 5464 5465 5467 5471 5476 5486 5497
5636 5632 5628 5624 5620 5616 5612 5608 5604 5600 5595 5591 5587 5583 5578 5573 5568 5563 5558 5552 5547 5541 5536 5531 5526 5521 5517 5513 5509 5506 5503 5499 5496 5493 5490 5486 5482 5478 5475 5472 5469 5464 5459 5455 5454 5455 5456 5458 5461 5466 5474 5487
5629 5625 5621 5617 5613 5608 5604 5600 5596 5592 5588 5583 5579 5574 5570 5565 5560 5554 5549 5543 5538 5532 5527 5523 5518 5513 5509 5505 5502 5499 5495 5492 5489 5486 5483 5479 5475 5471 5467 5464 5462 5457 5453 5449 5446 5446 5447 5449 5452 5457 5464 5476
5622 5618 5614 5610 5605 5601 5596 5592 5588 5583 5579 5575 5571 5566 5561 5557 5552 5546 5540 5534 5529 5523 5519 5514 5510 5506 5502 5498 5495 5492 5488 5485 5482 5479 5476 5473 5469 5465 5461 5458 5454 5451 5447 5443 5440 5439 5439 5441 5443 5448 5455 5465
5615 5611 5607 5602 5597 5593 5588 5584 5580 5575 5570 5566 5562 5558 5553 5549 5543 5538 5532 5526 5520 5515 5510 5506 5502 5498 5494 5490 5487 5484 5481 5478 5475 5472 5469 5466 5463 5458 5454 5451 5448 5445 5441 5437 5435 5433 5433 5434 5436 5441 5447 5454
5608 5604 5600 5595 5590 5585 5581 5576 5571 5567 5562 5558 5553 5548 5544 5540 5535 5529 5524 5517 5512 5507 5502 5498 5494 5490 5486 5483 5480 5477 5474 5471 5468 5465 5462 5460 5457 5453 5449 5445 5442 5439 5435 5432 5429 5427 5427 5428 5429 5433 5438 5442
5600 5596 5592 5587 5582 5577 5573 5568 5563 5559 5554 5550 5545 5540 5536 5531 5526 5521 5515 5510 5504 5499 5494 5490 5486 5482 5479 5476 5473 5470 5467 5464 5462 5459 5456 5453 5451 5448 5444 5440 5436 5433 5431 5427 5424 5422 5421 5422 5423 5425 5428 5432
5593 5589 5584 5579 5575 5569 5565 5560 5555 5550 5546 5541 5537 5532 5527 5523 5518 5512 5507 5502 5496 5491 5487 5482 5478 5475 5472 5469 5466 5463 5460 5458 5455 5452 5450 5447 5445 5442 5439 5435 5431 5427 5425 5423 5420 5417 5416 5416 5417 5418 5420 5424
5586 5581 5576 5571 5567 5562 5556 5552 5547 5542 5538 5532 5528 5523 5519 5514 5509 5504 5499 5494 5489 5484 5479 5475 5471 5468 5464 5461 5459 5456 5453 5451 5449 5446 5443 5441 5439 5437 5434 5430 5426 5422 5419 5417 5415 5412 5411 5410 5411 5412 5413 5417